Regional Weather Roundup
Issued by NWS

Home | Current Version | Previous Version | Graphics & Text | Print | Product List | Glossary On
Versions: 1 2 3 4 5 6 7 8 9 10 11 12 13 14 15 16 17 18 19 20 21 22 23 24 25 26 27 28 29 30 31 32 33 34 35 36 37 38 39 40 41 42 43 44 45 46 47 48 49 50
776
ASUS45 KSLC 292010
RWRUT

UTAH REGIONAL WEATHER ROUNDUP
NATIONAL WEATHER SERVICE SALT LAKE CITY UT
200 PM MDT MON MAY 29 2017

UTZ001>011-023>025-292100-

NORTHERN UTAH

CITY           SKY/WX    TMP DP  RH WIND       PRES   REMARKS
BRIGHAM CITY   SUNNY     78  30  17 N6        30.12F
HILL AFB       SUNNY     76  31  19 W5        30.14F
LOGAN          SUNNY     76  40  27 CALM      30.14F
OGDEN          SUNNY     77  36  22 CALM      30.11F
SALT LAKE CITY MOSUNNY   81  35  19 NW12      30.10F
TOOELE VALLEY  SUNNY     75  41  29 N8        30.13F
WENDOVER       SUNNY     79  32  18 E10       30.13F
HEBER CITY     SUNNY     77  21  12 NW5       30.15F
WEST JORDAN    SUNNY     76  48  37 CALM      30.13F

$$

UTZ011>015-024>027-292100-

CENTRAL/NORTHEAST UTAH

CITY           SKY/WX    TMP DP  RH WIND       PRES   REMARKS
PROVO AIRPORT  MOSUNNY   75  34  22 VRB7      30.13F
MOAB/CANYONLAN SUNNY     82  20  10 MISG      30.08F
DELTA          SUNNY     77  25  14 W5        30.13F
PRICE          MOSUNNY   76  23  14 SW9       30.17F
RICHFIELD      SUNNY     77  23  13 NE3         N/A
ROOSEVELT      SUNNY     77  25  14 S3        30.18F
VERNAL         SUNNY     76  30  18 VRB5      30.17F

$$

UTZ013>016-019>022-027-292100-

SOUTHERN UTAH

CITY           SKY/WX    TMP DP  RH WIND       PRES   REMARKS
BRYCE CANYON   MOSUNNY   69  21  16 VRB7      30.26F
CEDAR CITY     SUNNY     78  17  10 W5        30.13F
MILFORD        SUNNY     80  23  12 VRB5      30.12F
ST GEORGE      CLEAR     91  24   9 CALM      29.95F
KANAB          SUNNY     84  16   8 SW5       30.11F
BLANDING       MOSUNNY   77  22  12 CALM      30.23F

$$

REGIONAL REPORTS     COLORADO/ARIZONA

CITY           SKY/WX    TMP DP  RH WIND       PRES   REMARKS
CRAIG, CO      CLOUDY    67  32  27 NE5       30.23F
GRAND JUNCTION SUNNY     80  25  13 S5        30.11F
RIFLE, CO      MOSUNNY   75  23  14 VRB3      30.15F
MONTROSE, CO   SUNNY     74  20  13 VRB6G18   30.18F
CORTEZ, CO     SUNNY     77  17  10 SE12      30.16F
COLORADO CITY    N/A     88  25  10 SW8G20    30.11S
PAGE, AZ       SUNNY     86  20   9 NE9       30.05F
GRAND CANYON   MOSUNNY   76  20  12 NE16      30.19F
KINGMAN, AZ    SUNNY     94  27   9 SW8       29.93F
FLAGSTAFF, AZ  MOSUNNY   73  21  14 SE10G20   30.20F

$$

REGIONAL REPORTS    NEVADA/IDAHO/WYOMING

CITY           SKY/WX    TMP DP  RH WIND       PRES   REMARKS
LAS VEGAS, NV  MOSUNNY   95  14   5 E8        29.87F
ELY, NY        SUNNY     75  24  15 NE7       30.18F
ELKO, NV       SUNNY     79  25  13 MISG      30.13F
POCATELLO, ID  MOSUNNY   78  47  33 NW10      30.16F
BURLEY, ID     SUNNY     78  42  27 N7        30.12F
FORT BRIDGER,    N/A     65  28  25 NE5       30.31F
EVANSTON, WY   MOSUNNY   64  30  27 VRB5      30.28S
ROCK SPRINGS,  MOSUNNY   63  30  28 VRB3      30.27F
KEMMERER, WY     N/A     63  32  31 CALM      30.30F

$$




USA.gov is the U.S. government's official web portal to all federal, state and local government web resources and services.